Location: PSU-Greenbush Astrophysical Observatory
(37.5140°N, 94.9880°W)
Time: 22:35:29
(UTC-06:00)

Transit 4A - Visible Passes

Search period start: 23 January 2020 00:00
Search period end: 02 February 2020 00:00
Orbit: 871 x 973 km, 66.8° (Epoch: 23 January)

Date Brightness Start Highest point End Pass type
(mag) Time Alt. Az. Time Alt. Az. Time Alt. Az.
23 Jan 8.5 06:38:49 10° SSW 06:44:47 61° ESE 06:50:38 10° NE visible
24 Jan 11.0 05:06:30 10° ESE 05:08:33 12° ESE 05:10:35 10° E visible
24 Jan 7.9 06:47:59 10° SSW 06:54:04 88° WNW 07:00:02 10° NNE visible
25 Jan 10.4 05:13:26 10° SSE 05:17:36 19° ESE 05:21:41 10° ENE visible
25 Jan 7.9 06:57:27 10° SW 07:03:25 60° WNW 07:09:17 10° NNE visible
26 Jan 9.7 05:21:31 10° SSE 05:26:42 30° ESE 05:31:47 10° NE visible
27 Jan 8.9 05:30:07 10° S 05:35:52 46° ESE 05:41:31 10° NE visible
28 Jan 8.1 05:39:05 10° SSW 05:45:07 72° ESE 05:51:01 10° NNE visible
29 Jan 10.5 04:05:45 10° SE 04:08:47 14° ESE 04:11:48 10° ENE visible
29 Jan 7.7 05:48:22 10° SSW 05:54:25 77° WNW 06:00:22 10° NNE visible
30 Jan 9.9 04:14:01 13° SSE 04:17:51 23° ESE 04:22:22 10° ENE visible
30 Jan 8.0 05:57:57 10° SW 06:03:48 51° WNW 06:09:33 10° NNE visible
31 Jan 9.2 04:25:35 31° SE 04:27:00 35° ESE 04:32:18 10° NE visible
31 Jan 8.4 06:09:13 17° WSW 06:13:16 35° NW 06:18:38 10° N visible
01 Feb 8.4 04:36:16 54° ESE 04:36:16 54° ESE 04:41:56 10° NE visible
01 Feb 8.9 06:19:52 17° W 06:22:49 24° NW 06:27:33 10° N visible
